Location: Newark
(31.5350°N, 35.0986°E)
Time: 16:02:53
(UTC+00:00)

SR - Pass Details

Date: 18 October 2019
Orbit: 574 x 882 km, 66.7° (Epoch: 11 November)

Event Time Altitude Azimuth Distance (km) Brightness Sun altitude
Rises 07:09:01 0° 310° (NW) 3,481 ? 37.6°
Reaches altitude 10° 07:12:51 10° 286° (WNW) 2,533 ? 38.2°
Maximum altitude 07:15:38 14° 258° (WSW) 2,259 ? 38.6°
Drops below altitude 10° 07:18:24 10° 229° (SW) 2,491 ? 39.0°
Sets 07:22:08 0° 204° (SSW) 3,377 ? 39.5°
